Regional Weather Roundup
Issued by NWS

Home | Current Version | Previous Version | Text Only | Print | Product List | Glossary On
Versions: 1 2 3 4 5 6 7 8 9 10 11 12 13 14 15 16 17 18 19 20 21 22 23 24 25 26 27 28 29 30 31 32 33 34 35 36 37 38 39 40 41 42 43 44 45 46 47 48 49 50
581
ASUS43 KLOT 192212
RWRIL

ILLINOIS REGIONAL WEATHER ROUNDUP
NATIONAL WEATHER SERVICE CHICAGO/ROMEOVILLE IL
400 PM CST SUN FEB 19 2017

NOTE: "FAIR" INDICATES FEW OR NO CLOUDS BELOW 12,000 FEET WITH NO
SIGNIFICANT WEATHER AND/OR OBSTRUCTIONS TO VISIBILITY.

* THESE STATIONS ARE NOT UNDER NWS QUALITY CONTROL. THEY ALSO MAY NOT
  REPORT WEATHER SUCH AS PRECIPITATION OR FOG.

ILZ001-002-007-009-015-016-024-192300-
NORTHWEST ILLINOIS

CITY           SKY/WX    TMP DP  RH WIND       PRES   REMARKS
MOLINE         SUNNY     72  38  29 S12       29.97S
STERLING*      MOSUNNY   68  37  32 SE5       30.02S
SAVANNA*       MOSUNNY   66  38  36 SE7       30.00S
$$

ILZ003-004-008-010-011-017-018-192300-
NORTH CENTRAL ILLINOIS

CITY           SKY/WX    TMP DP  RH WIND       PRES   REMARKS
ROCKFORD       PTSUNNY   65  40  39 S9        30.04F
FREEPORT*      MOSUNNY   64  39  40 S8        30.03S
ROCHELLE*      MOSUNNY   64  42  43 S7        30.04S
DE KALB*       SUNNY     64  40  42 S9        30.04F
PERU*          MOSUNNY   67  33  28 S6        30.03S
$$

ILZ005-006-012>014-019>023-192300-
NORTHEAST ILLINOIS

CITY           SKY/WX    TMP DP  RH WIND       PRES   REMARKS
CHICAGO-OHARE  MOSUNNY   65  32  29 E10       30.04S
CHICAGO-MIDWAY PTSUNNY   63  31  30 E8        30.05S
AURORA         SUNNY     65  40  39 SE6       30.04S
LANSING*       SUNNY     64  43  45 SW5       30.06S
JOLIET*        SUNNY     66  40  38 S3        30.04F
WAUKEGAN       SUNNY     52  33  48 E7        30.05S
DUPAGE AIRPORT SUNNY     65  38  36 S9        30.04R
KANKAKEE*      SUNNY     64  45  50 CALM      30.07S
WHEELING       SUNNY     60  31  33 E7        30.06S
MORRIS*        SUNNY     67  38  34 CALM      30.03F
ROMEOVILLE*    SUNNY     63  44  50 S7        30.05S
NORTHERLY ISL    N/A     47  31  54 SE2         N/A
$$

LMZ740>746-192300-
SOUTHERN LAKE MICHIGAN

STATION/POSITION SKY/WX   TEMP    WIND        PRES    VSBY  WAVE
                          AIR SEA DIR/SP/G                  HT/PER
                          (F)     (DEG/KT/KT) (MB)    (MI)  (FT/S)
HARRISON CRIB              47     120/  2/  3   N/A
BURNHAM HARBOR             47     130/  2/  3   N/A
CALUMET HARBOR             46      70/  5/  8 1017.7R
BURNS HARBOR               43      80/  9/ 11 1018.6S
MICHIGAN CITY              42      30/ 11/ 11   N/A
$$

ILZ025>027-034>036-040-047-049-050-058-095>099-192300-
WEST-CENTRAL ILLINOIS

CITY           SKY/WX    TMP DP  RH WIND       PRES   REMARKS
QUINCY         MOSUNNY   71  47  42 S10       29.97F
GALESBURG*     SUNNY     69  46  43 S7        29.99F
MACOMB*        SUNNY     71  44  38 S10       30.01F
JACKSONVILLE*  SUNNY     70  47  43 SE7       30.00F
PITTSFIELD*    MOSUNNY   73  48  42 SE9       30.00F
$$

ILZ028>032-037-038-041>044-048-051>054-059>061-192300-
CENTRAL ILLINOIS

CITY           SKY/WX    TMP DP  RH WIND       PRES   REMARKS
PONTIAC        SUNNY     68  40  35 S6        30.05S
BLOOMINGTON    SUNNY     66  42  41 S6        30.06S
DECATUR        SUNNY     67  46  47 SE9       30.05F
PEORIA         SUNNY     68  45  43 S9        30.02F
LACON*         MOSUNNY   69  42  37 S9        30.01F
LINCOLN*       SUNNY     67  48  50 S7        30.03F
SPRINGFIELD    SUNNY     70  48  45 SE12      30.02F
TAYLORVILLE    SUNNY     65  49  55 SE9       30.05F
$$

ILZ033-039-045-046-055>057-062-063-192300-
EAST-CENTRAL ILLINOIS

CITY           SKY/WX    TMP DP  RH WIND       PRES   REMARKS
CHAMPAIGN      SUNNY     67  43  41 SW5       30.06F
RANTOUL*       SUNNY     68  45  44 S6        30.06F
MATTOON        SUNNY     60  51  72 S9        30.08R HAZE
PARIS*         SUNNY     65  48  55 SW5       30.08S
$$

ILZ079-100>102-192300-
SOUTHWEST ILLINOIS

CITY           SKY/WX    TMP DP  RH WIND       PRES   REMARKS
ALTON          MOSUNNY   64  52  63 E10       30.03F
BELLEVILLE     SUNNY     69  55  62 E10       30.02F
CAHOKIA*       SUNNY     70  51  51 SE15      30.02F
SPARTA*        SUNNY     68  55  63 E10       30.05F
$$

ILZ064>066-069>071-074>076-080>082-084>086-088>090-092>094-192300-
SOUTH-CENTRAL ILLINOIS

CITY           SKY/WX    TMP DP  RH WIND       PRES   REMARKS
CARBONDALE     SUNNY     66  55  67 E9        30.06F
CAIRO*         SUNNY     61  57  86 E3        30.08F
EFFINGHAM*     SUNNY     62  53  72 E7        30.10S
MARION         SUNNY     70  55  60 S6        30.08F
MT. VERNON     SUNNY     61  53  75 SE6       30.09S
CENTRALIA*     SUNNY     66  55  67 SE8       30.07S
SALEM*         SUNNY     67  52  57 S6        30.07F
METROPOLIS*    SUNNY     61  55  79 CALM      30.09F
$$

ILZ067-068-072-073-078-083-087-091-192300-
SOUTHEAST ILLINOIS

CITY           SKY/WX    TMP DP  RH WIND       PRES   REMARKS
LAWRENCEVILLE  SUNNY     57  49  74 S8        30.11S
FLORA*         PTSUNNY   59  52  78 S8        30.10S HAZE
FAIRFIELD*     CLOUDY    55  52  89 CALM      30.10R FOG
HARRISBURG*    SUNNY     60  56  85 E7        30.09F
ROBINSON*      SUNNY     59  49  70 S6        30.11S
CARMI*         CLOUDY    55  52  92 SE6       30.10F FOG
$$

ABBREVIATIONS USED IN REMARKS
   TC - TEMPERATURE IN CELSIUS
  WCI - WIND CHILL INDEX
   HX - HEAT INDEX
  VSB - VISIBILITY
$$





USA.gov is the U.S. government's official web portal to all federal, state and local government web resources and services.